TDRS 10

Last updated on Tue Sep 16 2025 00:02:40 GMT+0000 (Coordinated Universal Time)

1 27566U 02055A 25258.59597476 -.00000134 00000+0 00000+0 0 9999 2 27566 9.5383 45.0382 0012952 222.4057 316.2893 0.98863850 83481
UTC large
Height (km)
Speed (km/s)
/
Latitude / Longitude
Inclination (degrees)
Orbital Period (minutes)
Azimuth
Elevation
Range (km)
Doppler Factor

Next 0 passes for location: London (51.5072 / 0.1276)

Sorry there are no passes over London.